Regional Weather Roundup
Issued by NWS

Home | Current Version | Previous Version | Text Only | Print | Product List | Glossary Off
Versions: 1 2 3 4 5 6 7 8 9 10 11 12 13 14 15 16 17 18 19 20 21 22 23 24 25 26 27 28 29 30 31 32 33 34 35 36 37 38 39 40 41 42 43 44 45 46 47 48 49 50

000
ASUS43 KMKX 210200
RWRWI

WISCONSIN REGIONAL WEATHER ROUNDUP
NATIONAL WEATHER SERVICE MILWAUKEE/SULLIVAN WI
800 PM CST THU NOV 20 2014

NOTE: "FAIR" INDICATES FEW OR NO CLOUDS BELOW 12,000 FEET WITH NO
SIGNIFICANT WEATHER AND/OR OBSTRUCTIONS TO VISIBILITY.

WIZ001-002-006>008-014>016-023>028-210300-
NORTHWEST WISCONSIN

CITY           SKY/WX    TMP DP  RH WIND       PRES   REMARKS
SUPERIOR ARPT  CLEAR      3  -4  73 SW5       30.19R WCI  -7
ASHLAND        CLEAR      6  -3  66 SW8       30.17R WCI  -7
HAYWARD        CLEAR     -4  -8  83 CALM      30.15R
SIREN          PTCLDY    -3  -7  83 CALM      30.18S
CUMBERLAND     FAIR       3  -6  66 CALM      30.15S
RICE LAKE      FAIR       3  -3  77 CALM      30.18S
CHETEK         FAIR       1  -4  81 CALM      30.18S
LADYSMITH      CLEAR      7  -2  66 W5        30.16R WCI  -1
EAU CLAIRE     NOT AVBL
MENOMONIE      CLEAR     11  -1  59 W5        30.20S WCI   3
NEW RICHMOND   PTCLDY     2  -4  73 W6        30.20R WCI  -9
OSCEOLA        PTCLDY     1  -5  76 SW3       30.23R
$$

WIZ003>005-009-010-017-018-210300-
NORTH CENTRAL WISCONSIN

CITY           SKY/WX    TMP DP  RH WIND       PRES   REMARKS
MANITOWISH WTR CLOUDY     9   3  77 W10       30.06R WCI  -5
ARBOR VITAE    CLOUDY    11   4  71 W9        30.06R WCI  -1
WOODRUFF       CLOUDY    11   4  71 W9        30.06R WCI  -1
RHINELANDER    CLOUDY     8   0  69 W14       30.07R WCI  -8
EAGLE RIVER    FLURRIES   8   2  74 W9        30.04R WCI  -5
LAND O LAKES   LGT SNOW   9   5  83 W7        30.04R WCI  -2
PHILLIPS       PTCLDY    -5  -9  85 CALM      30.11R
TOMAHAWK       CLOUDY    -1  -5  85 CALM      30.11S
MEDFORD        CLEAR      5  -3  68 W3        30.12R
MERRILL        CLEAR     -1  -3  87 CALM      30.12R
$$

WIZ029-030-035-036-043>047-210300-
CENTRAL WISCONSIN

CITY           SKY/WX    TMP DP  RH WIND       PRES   REMARKS
WAUSAU         CLEAR      8  -1  66 NW6       30.13R WCI  -2
MOSINEE        CLEAR      7   0  72 W8        30.15R WCI  -6
MARSHFIELD     CLEAR      6  -4  63 W7        30.15R WCI  -6
STEVENS POINT  CLEAR      8  -2  64 W3        30.16R
WAUPACA        CLEAR     13   0  56 W6        30.18R WCI   4
WAUTOMA        NOT AVBL
WISC RAPIDS    CLEAR      8  -4  58 W5        30.20R WCI   0
CAMP DOUGLAS   NOT AVBL
$$

WIZ011>013-019>022-031-037>040-048>050-210300-
NORTHEAST WISCONSIN

CITY           SKY/WX    TMP DP  RH WIND       PRES   REMARKS
ANTIGO         CLOUDY     6  -1  73 W8        30.09R WCI  -7
SHAWANO        CLEAR     11   1  62 CALM      30.16R
OCONTO         CLEAR     10   0  62 W7        30.16R WCI   0
STURGEON BAY   PTCLDY    12   0  57 NW15G24   30.14R WCI  -4
GREEN BAY      CLEAR     11   1  64 W9        30.18R WCI  -2
MANITOWOC      NOT AVBL
APPLETON       MOCLDY     9   0  66 W7        30.17R WCI  -3
CLINTONVILLE   MOCLDY    10   1  67 NW6       30.17R WCI   1
OSHKOSH        CLEAR     11   0  61 W6        30.18R WCI   1
$$

WIZ032>034-041-042-053>061-210300-
SOUTHWEST WISCONSIN

CITY           SKY/WX    TMP DP  RH WIND       PRES   REMARKS
LA CROSSE      CLEAR     14   2  58 W5        30.24R WCI   6
SPARTA         CLEAR      4  -1  79 CALM      30.22R
VIROQUA        CLEAR     11   2  68 NW3       30.18R
BOSCOBEL       CLEAR     14   4  64 S5        30.26R WCI   6
PRAIRIE DU CHI CLEAR     13   4  67 CALM      30.26R
PLATTEVILLE    FAIR      13   5  69 W8        30.23R WCI   2
$$

WIZ056-057-062-063-064-067-068-210300-
SOUTH CENTRAL WISCONSIN

CITY           SKY/WX    TMP DP  RH WIND       PRES   REMARKS
REEDSBURG      FAIR      13   1  58 W6        30.20R WCI   3
BARABOO/DELLS  FAIR      12  -2  54 CALM      30.20R
LONE ROCK      NOT AVBL
MINERAL POINT  CLEAR     12   3  67 W6        30.20R WCI   3
MADISON        CLEAR     13  -1  54 W5        30.21R WCI   5
MIDDLETON      CLEAR     15   0  50 NW5       30.20R WCI   8
WATERTOWN      CLEAR     14   1  56 NW8       30.18R WCI   3
MONROE         CLEAR     14   9  79 W9        30.19R WCI   2
JANESVILLE     CLEAR     16   7  67 W6        30.21R WCI   7
$$

WIZ051-052-058>065-066-070>072-210300-
SOUTHEAST WISCONSIN

CITY           SKY/WX    TMP DP  RH WIND       PRES   REMARKS
MILWAUKEE      CLEAR     18  -1  43 NW13G22   30.19R WCI   5
WAUKESHA       CLEAR     14   1  57 NW14      30.18R WCI  -1
MILWAUKEE/TIMM CLEAR     16  -2  45 NW10      30.20R WCI   3
RACINE         CLEAR     18   0  45 NW7       30.21R WCI   9
BURLINGTON     CLEAR     14   1  57 W7        30.19R WCI   3
KENOSHA        CLEAR     15   4  61 W8        30.19R WCI   4
FOND DU LAC    CLEAR     10  -1  61 W5        30.19R WCI   2
SHEBOYGAN      MOCLDY    15   1  53 NW12      30.17R WCI   2
WEST BEND      FAIR      14   1  57 NW6G17    30.17R WCI   5
JUNEAU         CLEAR     12  -1  56 W6        30.19R WCI   3
$$

LSZ147-162-210300-
LAKE SUPERIOR

STATION/POSITION TIME  TEMP    WIND        PRES    WAVE
                       AIR SEA DIR/SP/G            HT/PER
                 (UTC) (F)     (DEG/KT/KT) (MB)    (FT/S)
DEVILS ISLAND    0100   17     280/ 16/ 20 1021.7R
PORT WING        0100   17     280/ 16/ 23 1021.3
SAXON HARBOR     0120   14     220/  6/ 11 1021.0R
$$

LMZ867-665-643>646-210300-
LAKE MICHIGAN

STATION/POSITION TIME  TEMP    WIND        PRES    WAVE
                       AIR SEA DIR/SP/G            HT/PER
                 (UTC) (F)     (DEG/KT/KT) (MB)    (FT/S)
CHAMBERS ISLAND  0100   15     280/  9/ 20 1020.0R
N MID LAKE BUOY  0050   20 42  320/ 23/ 31 1019.2R   5/ 5
NORTHPORT PIER   0103   17     290/ 11     1019.3R
SISTER BAY       0013          330/ 23/ 27   N/A
ALGOMA LAKESHORE 0013          340/  9/ 13   N/A
KEWAUNEE LAKESHO 0100   13     280/  7/ 11 1019.6R
SHEBOYGAN LAKESH 0100   16 34  300/ 14/ 20 1022.8R
PORT WASHINGTON  0140   16     310/  4/  8 1023.0R
ATWATER BUOY     0100   24     290/ 14/ 17 1021.4R
MILWAUKEE LAKESH 0100   20     300/ 10/ 15   N/A
S MID LAKE BUOY  0050   26 43  290/ 23/ 31 1021.2R   7/ 6
KENOSHA   LAKESH 0100   20     280/  9/ 14 1021.7R
$$

TC  - TEMPERATURE IN CELSIUS
VSB - VISIBILITY IN STATUTE MILES
WCI - WIND CHILL INDEX
HX  - HEAT INDEX




USA.gov is the U.S. government's official web portal to all federal, state and local government web resources and services.